Location: Neuvy Saint Sepulchre
(46.5953°N, 1.8122°E)
Time: 16:07:32
(UTC+01:00)

Envisat - Pass Details

Date: 28 October 2021
Orbit: 764 x 766 km, 98.2° (Epoch: 04 December)

Event Time Altitude Azimuth Distance (km) Brightness Sun altitude
Rises 05:29:52 0° 32° (NNE) 3,242 6.9 -31.1°
Reaches altitude 10° 05:33:41 10° 62° (ENE) 2,308 6.3 -30.5°
Maximum altitude 05:35:48 13° 87° (E) 2,132 6.1 -30.1°
Drops below altitude 10° 05:37:56 10° 112° (ESE) 2,300 6.1 -29.8°
Sets 05:41:42 0° 141° (SE) 3,219 6.6 -29.1°
